Regional Weather Roundup
Issued by NWS

Home | Current Version | Previous Version | Text Only | Print | Product List | Glossary Off
Versions: 1 2 3 4 5 6 7 8 9 10 11 12 13 14 15 16 17 18 19 20 21 22 23 24 25 26 27 28 29 30 31 32 33 34 35 36 37 38 39 40 41 42 43 44 45 46 47 48 49 50

000
ASUS43 KIND 240409
RWRIN

WEATHER ROUNDUP FOR INDIANA
NATIONAL WEATHER SERVICE INDIANAPOLIS IN
1200 AM EDT THU APR 24 2014

NOTE: "FAIR" INDICATES FEW OR NO CLOUDS BELOW 12,000 FEET WITH NO
SIGNIFICANT WEATHER AND/OR OBSTRUCTIONS TO VISIBILITY.

* - STATION DOES NOT REPORT WEATHER SUCH AS PRECIPITATION OR FOG.

+ - STATION NOT QUALITY CONTROLLED BY THE NATIONAL WEATHER SERVICE.
    USE DATA WITH CAUTION...ESPECIALLY DEWPOINT AND RELATIVE
    HUMIDITY OBSERVATIONS.

INZ001>003-010>013-019-020-240500-
NORTHWEST INDIANA

CITY           SKY/WX    TMP DP  RH WIND       PRES   REMARKS
GARY /AIRPORT/ CLOUDY    42  33  69 E6        30.07F
LA PORTE +     CLOUDY    41  30  63 E5        30.07F
MICHIGAN CITY+ CLOUDY    41  30  65 E5        30.07F
MONTICELLO +   CLOUDY    50  37  61 NE8       30.04F
RENSSELAER +   CLOUDY    45  34  65 NE9       30.06S
VALPARAISO     CLOUDY    41  30  65 NE8       30.06F

$$

LMZ046-743>745-240500-
SOUTHERN LAKE MICHIGAN

STATION/POSITION TIME  TEMP WIND        PRES
                       AIR  DIR/SP/G
                 (UTC) (F)  (DEG/KT/KT) (MB)
MICHIGAN CITY    0400   41   60/  7/  9   N/A

$$

INZ004-005-014>016-021>024-240500-
NORTH CENTRAL INDIANA

CITY           SKY/WX    TMP DP  RH WIND       PRES   REMARKS
GOSHEN         CLOUDY    49  34  56 N5        30.08F
LOGANSPORT +   CLOUDY    50  32  50 E6        30.06F
PERU/GRISSOM   CLOUDY    52  32  46 E7        30.06F
ROCHESTER +    MOCLDY    50  36  57 NE3       30.07F
SOUTH BEND     CLOUDY    45  29  53 E3        30.09F
WARSAW +       MOCLDY    46  36  66 N5        30.08F

$$

INZ006>009-017-018-025>027-240500-
NORTHEAST INDIANA

CITY           SKY/WX    TMP DP  RH WIND       PRES   REMARKS
ANGOLA *+      CLEAR     48  25  40 E6        30.09S
AUBURN +       MOCLDY    46  28  49 E3        30.09F
FORT WAYNE     MOCLDY    48  29  47 E5        30.09F

$$

INZ028-029-035-036-043>045-051>053-240500-
WEST CENTRAL INDIANA

CITY           SKY/WX    TMP DP  RH WIND       PRES   REMARKS
GREENCASTLE +  CLOUDY    52  36  54 E3        30.05R
LAFAYETTE      CLOUDY    52  30  43 E8        30.04F
TERRE HAUTE    CLOUDY    53  35  50 E6        30.04S

$$

INZ030>032-037>040-046>048-054>057-064-065-240500-
CENTRAL INDIANA

CITY           SKY/WX    TMP DP  RH WIND       PRES   REMARKS
CP ATTERBURY + CLOUDY    48  41  76 CALM      30.08F
GREENWOOD *+   CLOUDY    54  32  43 E9        30.04F
INDIANAPOLIS   CLOUDY    54  30  40 E8        30.03F
-EAGLE CREEK   CLOUDY    54  30  40 E7        30.04F
KOKOMO *+      CLOUDY    50  36  57 E8        30.07F
MARION +       PTCLDY    48  32  54 SE3       30.08F
MT COMFORT *+  CLOUDY    48  41  76 E9        30.06F
SHELBYVILLE    CLOUDY    53  37  54 NE3       30.08S
ZIONSVILLE +   CLOUDY    53  31  43 E3        30.06F

$$

INZ033-034-041-042-049-050-058-059-240500-
EAST CENTRAL INDIANA

CITY           SKY/WX    TMP DP  RH WIND       PRES   REMARKS
MUNCIE           N/A     50  31  48 SE3       30.08F

$$

INZ060-061-067>069-081>083-085>088-240500-
SOUTHWEST INDIANA

CITY           SKY/WX    TMP DP  RH WIND       PRES   REMARKS
EVANSVILLE     MOCLDY    56  38  50 NE5       30.02S
HUNTINGBURG *+ CLOUDY    54  30  40 E7        30.03F
WASHINGTON +   MOCLDY    55  37  51 E7        30.03S

$$

INZ062-063-066-070>080-084-089>092-240500-
SOUTH CENTRAL AND SOUTHEAST INDIANA

CITY           SKY/WX    TMP DP  RH WIND       PRES   REMARKS
BLOOMINGTON    CLOUDY    55  30  38 E9        30.02F

$$




USA.gov is the U.S. government's official web portal to all federal, state and local government web resources and services.